APG326 RPLL-RPVD

Flight info

Callsign APG326
Flight time N/A
Altitude 35000
Route VERDE4V VERDE A461 SAJ W3 IOO B472 NANAS NANAS1W
Aircraft A320/M-SDE3FGHIRWY/LB1

Departure

Time N/A
Airport Ninoy Aquino International Airport (RPLL)

Arrival

Time 2026-04-29 06:46
Airport Sibulan Airport (RPVD)
Time Latitude Longitude Altitude Speed Heading
2026-04-29 05:59 12.98810 121.03692 32807 ft 451 kts 179°
2026-04-29 05:59 12.95671 121.03726 33150 ft 451 kts 180°
2026-04-29 05:59 12.92540 121.03758 33487 ft 450 kts 180°
2026-04-29 06:00 12.89410 121.03788 33823 ft 449 kts 180°
2026-04-29 06:00 12.86279 121.03814 34155 ft 449 kts 180°
2026-04-29 06:00 12.83157 121.03839 34478 ft 448 kts 180°
2026-04-29 06:00 12.80043 121.03865 34785 ft 447 kts 180°
2026-04-29 06:01 12.76964 121.03893 34974 ft 447 kts 180°
2026-04-29 06:01 12.73877 121.03927 35010 ft 440 kts 179°
2026-04-29 06:01 12.67783 121.03995 35008 ft 436 kts 180°
2026-04-29 06:02 12.61716 121.04054 35013 ft 436 kts 180°
2026-04-29 06:02 12.55650 121.04108 35008 ft 435 kts 180°
2026-04-29 06:03 12.49575 121.04168 35009 ft 435 kts 180°
2026-04-29 06:03 12.43513 121.04235 35006 ft 435 kts 180°
2026-04-29 06:04 12.37575 121.05062 35003 ft 435 kts 161°
2026-04-29 06:04 12.32268 121.07984 35005 ft 435 kts 141°
2026-04-29 06:05 12.27818 121.12186 34993 ft 435 kts 137°
2026-04-29 06:05 12.23406 121.16395 35000 ft 436 kts 137°
2026-04-29 06:06 12.18969 121.20628 34991 ft 436 kts 137°
2026-04-29 06:06 12.14535 121.24866 34991 ft 436 kts 137°
2026-04-29 06:07 12.10103 121.29108 34995 ft 436 kts 137°
2026-04-29 06:07 12.05685 121.33330 34995 ft 437 kts 137°
2026-04-29 06:08 12.01244 121.37567 34997 ft 437 kts 137°
2026-04-29 06:08 11.96800 121.41808 35007 ft 437 kts 137°
2026-04-29 06:09 11.92345 121.46048 35003 ft 437 kts 137°
2026-04-29 06:09 11.87922 121.50258 35009 ft 437 kts 137°
2026-04-29 06:10 11.83473 121.54496 35007 ft 437 kts 137°
2026-04-29 06:10 11.79020 121.58742 35016 ft 437 kts 137°
2026-04-29 06:11 11.74578 121.62974 35006 ft 437 kts 137°
2026-04-29 06:11 11.70129 121.67209 35006 ft 437 kts 137°
2026-04-29 06:12 11.65681 121.71434 35010 ft 437 kts 137°
2026-04-29 06:12 11.61262 121.75632 35005 ft 437 kts 137°
2026-04-29 06:13 11.56816 121.79854 35011 ft 437 kts 137°
2026-04-29 06:13 11.52373 121.84072 35008 ft 437 kts 137°
2026-04-29 06:14 11.47922 121.88302 35005 ft 437 kts 137°
2026-04-29 06:14 11.43475 121.92531 35014 ft 437 kts 137°
2026-04-29 06:15 11.39023 121.96747 35011 ft 437 kts 137°
2026-04-29 06:15 11.34599 122.00936 35011 ft 437 kts 137°
2026-04-29 06:16 11.30148 122.05156 35006 ft 437 kts 137°
2026-04-29 06:16 11.25691 122.09381 35008 ft 437 kts 137°
2026-04-29 06:17 11.21247 122.13590 35008 ft 437 kts 137°
2026-04-29 06:17 11.16787 122.17806 35005 ft 437 kts 137°
2026-04-29 06:18 11.12338 122.22018 35008 ft 436 kts 137°
2026-04-29 06:18 11.07914 122.26203 35003 ft 436 kts 137°
2026-04-29 06:19 11.03457 122.30413 35006 ft 436 kts 137°
2026-04-29 06:19 10.99003 122.34618 35001 ft 436 kts 137°
2026-04-29 06:20 10.94551 122.38822 35004 ft 437 kts 137°
2026-04-29 06:20 10.90098 122.43024 35004 ft 437 kts 137°
2026-04-29 06:21 10.85638 122.47226 35006 ft 436 kts 138°
2026-04-29 06:21 10.80597 122.50603 35008 ft 435 kts 156°
2026-04-29 06:22 10.75107 122.53188 34866 ft 436 kts 155°
2026-04-29 06:22 10.72363 122.54488 34613 ft 433 kts 155°
2026-04-29 06:22 10.69671 122.55764 34366 ft 431 kts 155°
2026-04-29 06:23 10.66959 122.57050 34116 ft 430 kts 155°
2026-04-29 06:23 10.64260 122.58329 33866 ft 428 kts 155°
2026-04-29 06:23 10.61567 122.59602 33574 ft 424 kts 155°
2026-04-29 06:23 10.58900 122.60863 33060 ft 421 kts 155°
2026-04-29 06:24 10.57145 122.61694 32714 ft 419 kts 155°
2026-04-29 06:24 10.53619 122.63364 32028 ft 416 kts 155°
2026-04-29 06:24 10.51005 122.64601 31526 ft 413 kts 155°
2026-04-29 06:24 10.49282 122.65416 31194 ft 412 kts 155°
2026-04-29 06:25 10.45822 122.67049 30543 ft 408 kts 155°
2026-04-29 06:25 10.44118 122.67851 30219 ft 406 kts 155°
2026-04-29 06:25 10.41569 122.69056 29742 ft 403 kts 155°
2026-04-29 06:25 10.39037 122.70254 29279 ft 400 kts 155°
2026-04-29 06:26 10.36522 122.71444 28819 ft 397 kts 155°
2026-04-29 06:26 10.34026 122.72623 28376 ft 394 kts 155°
2026-04-29 06:26 10.31554 122.73789 27930 ft 391 kts 155°
2026-04-29 06:26 10.28303 122.75319 27336 ft 387 kts 155°
2026-04-29 06:27 10.26654 122.76093 27033 ft 385 kts 155°
2026-04-29 06:27 10.24230 122.77233 26575 ft 383 kts 155°
2026-04-29 06:27 10.21824 122.78367 26123 ft 380 kts 155°
2026-04-29 06:27 10.19435 122.79491 25659 ft 378 kts 155°
2026-04-29 06:28 10.17057 122.80609 25185 ft 375 kts 155°
2026-04-29 06:28 10.14695 122.81721 24708 ft 373 kts 155°
2026-04-29 06:28 10.12343 122.82834 24216 ft 371 kts 155°
2026-04-29 06:28 10.10011 122.83936 23736 ft 369 kts 155°
2026-04-29 06:29 10.07710 122.85020 23249 ft 368 kts 155°
2026-04-29 06:29 10.05397 122.86109 22769 ft 366 kts 155°
2026-04-29 06:29 10.03090 122.87195 22293 ft 365 kts 155°
2026-04-29 06:29 10.00793 122.88276 21819 ft 363 kts 155°
2026-04-29 06:30 9.98498 122.89352 21357 ft 362 kts 155°
2026-04-29 06:30 9.93949 122.91487 20425 ft 359 kts 155°
2026-04-29 06:30 9.91688 122.92550 19968 ft 357 kts 155°
2026-04-29 06:31 9.89438 122.93607 19519 ft 356 kts 155°
2026-04-29 06:31 9.87200 122.94661 19056 ft 354 kts 155°
2026-04-29 06:31 9.84986 122.95705 18607 ft 347 kts 155°
2026-04-29 06:31 9.82816 122.96730 18175 ft 340 kts 155°
2026-04-29 06:32 9.80706 122.97767 17747 ft 334 kts 150°
2026-04-29 06:32 9.78858 122.99148 17334 ft 328 kts 136°
2026-04-29 06:32 9.77388 123.00889 16923 ft 323 kts 125°
2026-04-29 06:32 9.76110 123.02739 16530 ft 318 kts 125°
2026-04-29 06:33 9.74845 123.04556 16141 ft 313 kts 126°
2026-04-29 06:33 9.73613 123.06319 15766 ft 309 kts 126°
2026-04-29 06:33 9.72383 123.08084 15389 ft 305 kts 126°
2026-04-29 06:33 9.71169 123.09825 15018 ft 300 kts 126°
2026-04-29 06:34 9.69973 123.11545 14650 ft 297 kts 126°
2026-04-29 06:34 9.68789 123.13245 14288 ft 293 kts 126°
2026-04-29 06:34 9.67618 123.14924 13929 ft 290 kts 126°
2026-04-29 06:34 9.66453 123.16597 13561 ft 291 kts 126°
2026-04-29 06:35 9.65283 123.18278 13196 ft 292 kts 126°
2026-04-29 06:35 9.64112 123.19962 12828 ft 293 kts 126°
2026-04-29 06:35 9.62938 123.21648 12449 ft 293 kts 126°
2026-04-29 06:35 9.61760 123.23337 12071 ft 293 kts 126°
2026-04-29 06:36 9.60584 123.25025 11685 ft 293 kts 126°
2026-04-29 06:36 9.59406 123.26715 11298 ft 294 kts 126°
2026-04-29 06:36 9.58234 123.28396 10907 ft 290 kts 126°
2026-04-29 06:36 9.57084 123.30046 10518 ft 284 kts 126°
2026-04-29 06:37 9.55958 123.31663 10132 ft 278 kts 126°
2026-04-29 06:37 9.54851 123.33252 9752 ft 274 kts 126°
2026-04-29 06:37 9.53773 123.34799 9364 ft 269 kts 126°
2026-04-29 06:37 9.52702 123.36337 8985 ft 265 kts 126°
2026-04-29 06:38 9.51641 123.37858 8593 ft 264 kts 126°
2026-04-29 06:38 9.50585 123.39369 8202 ft 262 kts 126°
2026-04-29 06:38 9.49535 123.40874 7810 ft 262 kts 126°
2026-04-29 06:38 9.48482 123.42377 7402 ft 262 kts 126°
2026-04-29 06:39 9.47429 123.43879 6991 ft 262 kts 126°
2026-04-29 06:39 9.46378 123.45385 6580 ft 262 kts 126°
2026-04-29 06:39 9.45327 123.46891 6156 ft 262 kts 126°
2026-04-29 06:39 9.44272 123.48400 5700 ft 263 kts 126°
2026-04-29 06:40 9.43206 123.49918 5223 ft 265 kts 126°
2026-04-29 06:40 9.42105 123.51416 4743 ft 266 kts 134°
2026-04-29 06:40 9.40592 123.52466 4253 ft 265 kts 160°
2026-04-29 06:40 9.38782 123.52737 3757 ft 265 kts 186°
2026-04-29 06:41 9.37025 123.52199 3258 ft 265 kts 208°
2026-04-29 06:41 9.35415 123.51345 3101 ft 256 kts 208°
2026-04-29 06:41 9.33905 123.50440 2858 ft 246 kts 220°
2026-04-29 06:41 9.32891 123.49156 2698 ft 225 kts 244°
2026-04-29 06:42 9.32491 123.47708 2582 ft 206 kts 266°
2026-04-29 06:42 9.32534 123.46295 2493 ft 197 kts 273°
2026-04-29 06:42 9.32612 123.44920 2414 ft 190 kts 272°
2026-04-29 06:42 9.32682 123.43648 2343 ft 175 kts 272°
2026-04-29 06:43 9.32749 123.42459 2233 ft 163 kts 272°
2026-04-29 06:43 9.32809 123.41378 2180 ft 148 kts 272°
2026-04-29 06:43 9.32865 123.40358 2003 ft 142 kts 272°
2026-04-29 06:43 9.32918 123.39367 1798 ft 140 kts 272°
2026-04-29 06:44 9.32972 123.38389 1606 ft 139 kts 272°
2026-04-29 06:44 9.33027 123.37414 1416 ft 138 kts 272°
2026-04-29 06:44 9.33081 123.36447 1228 ft 138 kts 272°
2026-04-29 06:44 9.33133 123.35480 1040 ft 137 kts 272°
2026-04-29 06:45 9.33185 123.34517 853 ft 137 kts 272°
2026-04-29 06:45 9.33239 123.33556 667 ft 136 kts 272°
2026-04-29 06:45 9.33290 123.32596 475 ft 136 kts 272°
2026-04-29 06:45 9.33338 123.31640 219 ft 136 kts 272°
2026-04-29 06:46 9.33388 123.30698 28 ft 125 kts 271°
2026-04-29 06:46 9.33419 123.30078 32 ft 45 kts 273°
2026-04-29 06:46 9.33435 123.29856 39 ft 29 kts 275°
2026-04-29 06:46 9.33435 123.29727 40 ft 14 kts 242°
2026-04-29 06:47 9.33365 123.29665 41 ft 13 kts 242°
2026-04-29 06:47 9.33362 123.29597 45 ft 6 kts 266°
2026-04-29 06:47 9.33344 123.29577 43 ft 3 kts 206°
2026-04-29 06:47 9.33323 123.29576 45 ft 3 kts 178°
2026-04-29 06:48 9.33319 123.29576 45 ft 0 kts 178°
2026-04-29 06:53 9.33331 123.29576 45 ft 2 kts 181°
2026-04-29 06:54 9.33348 123.29579 44 ft 3 kts 216°
2026-04-29 06:54 9.33360 123.29592 45 ft 3 kts 252°
2026-04-29 06:54 9.33363 123.29601 45 ft 0 kts 264°
2026-04-29 06:56 9.33362 123.29592 45 ft 4 kts 266°
2026-04-29 06:56 9.33364 123.29558 46 ft 10 kts 279°
2026-04-29 06:56 9.33400 123.29509 49 ft 7 kts 321°
2026-04-29 06:56 9.33425 123.29489 50 ft 4 kts 322°
2026-04-29 06:57 9.33461 123.29445 51 ft 9 kts 295°
2026-04-29 06:57 9.33476 123.29394 52 ft 5 kts 263°
2026-04-29 06:57 9.33465 123.29396 52 ft 1 kts 129°
2026-04-29 06:57 9.33460 123.29430 52 ft 0 kts 94°
2026-04-29 06:59 9.33454 123.29523 49 ft 48 kts 93°
2026-04-29 06:59 9.33421 123.30123 30 ft 119 kts 93°
2026-04-29 06:59 9.33363 123.31137 130 ft 160 kts 94°
2026-04-29 06:59 9.33322 123.32246 822 ft 152 kts 92°
2026-04-29 07:00 9.33354 123.33293 1303 ft 162 kts 72°
2026-04-29 07:00 9.34133 123.34242 1270 ft 190 kts 21°
2026-04-29 07:00 9.35445 123.34510 1639 ft 206 kts 351°
2026-04-29 07:00 9.36771 123.33873 1988 ft 223 kts 319°
2026-04-29 07:01 9.37908 123.32720 2414 ft 241 kts 311°
2026-04-29 07:01 9.39074 123.31437 2934 ft 254 kts 313°
2026-04-29 07:01 9.40320 123.30167 3152 ft 254 kts 315°
2026-04-29 07:01 9.41591 123.28916 3445 ft 258 kts 315°
2026-04-29 07:02 9.42884 123.27656 4330 ft 258 kts 315°
2026-04-29 07:02 9.44179 123.26391 5184 ft 260 kts 315°
2026-04-29 07:02 9.45488 123.25110 5991 ft 263 kts 315°
2026-04-29 07:02 9.46813 123.23808 6782 ft 266 kts 315°